Погода в Кеноре

Канада     49°45′58″N   94°29′15″W
темп.,
°C
ветер,
м/с
пор.,
м/с
влажн.,
%
обл.,
%
осадки,
мм/ч
давл.,
гПа
погр.,
м
24 января, пн
пн2401:00−24с2110092 0.3 101329
04:00−25ссз2810084 0.0 1014122
07:00−26ссз3129855 0.0 1017226
10:00−27сз3119519 0.0 1019344
13:00−22ссз4786100 0.0 1021556
16:00−20сз4787100 0.0 1021770
19:00−24зсз3796100 0.0 1023176
22:00−26зсз3897100 0.0 1025204
25 января, вт
вт2501:00−30зсз2410099 0.0 102766
04:00−31сз259972 0.0 102891
07:00−31сз299997 0.0 1030167
10:00−31сз2810093 0.0 1032167
13:00−23сз3587100 0.0 1032529
16:00−20зсз2484100 0.0 1031692
19:00−28юз2210089 0.0 103210
22:00−29юз2510043 0.0 103168
26 января, ср
ср2601:00−28ю31197100 0.0 1028197
04:00−25ю51693100 0.0 1024385
07:00−22ю72185100 0.0 1016522
10:00−16ююз82282100 0.0 1008719
13:00−10ююз71694100 0.7 1004622
16:00−7ююз51294100 0.4 1002523
19:00−6юз51295100 0.5 1002445
22:00−4юз4139696 0.3 1002545
27 января, чт
чт2701:00−6ссз61188100 1.1 1008811
04:00−13ссз61288100 0.1 1016713
07:00−20с512899 0.1 1023484
10:00−23ссз410935 0.0 1029337
13:00−19ссз368558 0.0 1031470
16:00−17сз358174 0.0 1030562
19:00−26зсз11995 0.0 10339
22:00−29з11100100 0.0 103310
28 января, пт
пт2801:00−27юз11100100 0.0 103219
04:00−29ю2210066 0.0 103120
07:00−27ю13100100 0.0 103054
10:00−21юз129899 0.1 1029116
13:00−15зсз1389100 0.1 1028462
16:00−12зсз2484100 0.1 1027736
19:00−19зсз11100100 0.1 102911
22:00−24сз1110099 0.0 10309